This is the latest recevied weather packets stored in our database for station/object N6GPM. If no packets are shown the sender has not sent any weather packets the latest 10 day(s).
| Time | Temp. | Humidity | Pressure | Rain* | Wind** | Luminosity | Snow |
|---|---|---|---|---|---|---|---|
| 1787672648 | 30° C | 36% | 1019.9 hPa | 0 mm | - | 429 W/m² | - |
| 1787672342 | 29.44° C | 36% | 1019.8 hPa | 0 mm | - | 408 W/m² | - |
| 1787672037 | 29.44° C | 36% | 1019.8 hPa | 0 mm | - | 387 W/m² | - |
| 1787671732 | 29.44° C | 37% | 1019.8 hPa | 0 mm | - | 365 W/m² | - |
| 1787671431 | 28.89° C | 38% | 1020 hPa | 0 mm | - | 344 W/m² | - |
| 1787671127 | 28.89° C | 39% | 1020.1 hPa | 0 mm | - | 323 W/m² | - |
| 1787670823 | 28.89° C | 39% | 1020.1 hPa | 0 mm | - | 302 W/m² | - |
| 1787670523 | 28.89° C | 38% | 1020 hPa | 0 mm | - | 281 W/m² | - |
| 1787670217 | 28.33° C | 38% | 1020 hPa | 0 mm | - | 257 W/m² | - |
| 1787669916 | 27.78° C | 40% | 1020 hPa | 0 mm | - | 238 W/m² | - |
| 1787669611 | 27.78° C | 39% | 1019.9 hPa | 0 mm | - | 218 W/m² | - |
| 1787669307 | 28.33° C | 39% | 1019.9 hPa | 0 mm | - | 200 W/m² | - |
| 1787669002 | 29.44° C | 38% | 1019.9 hPa | 0 mm | - | 181 W/m² | - |
| 1787668699 | 28.89° C | 38% | 1019.8 hPa | 0 mm | - | 163 W/m² | - |
| 1787668395 | 27.22° C | 40% | 1019.8 hPa | 0 mm | - | 145 W/m² | - |
| 1787668094 | 26.67° C | 43% | 1019.7 hPa | 0 mm | - | 129 W/m² | - |
| 1787667789 | 26.67° C | 43% | 1019.9 hPa | 0 mm | - | 113 W/m² | - |
| 1787667484 | 26.67° C | 42% | 1019.9 hPa | 0 mm | - | 99 W/m² | - |
| 1787667180 | 26.11° C | 41% | 1019.8 hPa | 0 mm | - | 86 W/m² | - |
| 1787666875 | 26.11° C | 43% | 1019.7 hPa | 0 mm | - | 74 W/m² | - |
| 1787666572 | 25.56° C | 43% | 1019.5 hPa | 0 mm | - | 63 W/m² | - |
| 1787666271 | 25.56° C | 44% | 1019.7 hPa | 0 mm | - | 53 W/m² | - |
| 1787665967 | 25° C | 44% | 1019.6 hPa | 0 mm | - | 45 W/m² | - |
| 1787665661 | 25° C | 45% | 1019.4 hPa | 0 mm | - | 36 W/m² | - |
| 1787665356 | 24.44° C | 45% | 1019.7 hPa | 0 mm | - | 29 W/m² | - |
* Rain latest hour (hover to see other rain measurements)
** Current wind speed in m/s (hover to see current wind gust speed)